When you browse on this site, cookies collect data to enhance your experience and personalize the content and advertising you see.
Visit our Privacy Policy to learn more. By continuing to use the site, you agree to this use of cookies and data.
  • In Österreich
  • Länderverzeichnis
  • Für 7 Tage
  • Wassertemperatur
  • Satellitenkarten
  • Wetterkarte
  • News
  • Widgets
  • user-avatar
    Anmelden

    Stündliche Wetter Rohyntsi

    Heute, 19 Mai, Sonntag

    Zeit Temperatur Niederschläge Wind Luftdruck Luftfeuchtigkeit
    00:00 +17°C° 0 mm 4 m/S 734 mmHg 93%
    01:00 +17°C° 0 mm 4 m/S 734 mmHg 94%
    02:00 +16°C° 0 mm 3 m/S 733 mmHg 95%
    03:00 +16°C° 0 mm 3 m/S 734 mmHg 96%
    04:00 +14°C° 0 mm 3 m/S 734 mmHg 96%
    05:00 +14°C° 0 mm 3 m/S 734 mmHg 97%
    06:00 +16°C° 0 mm 3 m/S 734 mmHg 95%
    07:00 +17°C° 0 mm 3 m/S 734 mmHg 93%
    08:00 +17°C° 0 mm 5 m/S 734 mmHg 89%
    09:00 +20°C° 0.2 mm 5 m/S 734 mmHg 85%
    10:00 +21°C° 0.2 mm 5 m/S 735 mmHg 81%
    11:00 +23°C° 0.2 mm 6 m/S 735 mmHg 77%
    12:00 +23°C° 0.3 mm 6 m/S 735 mmHg 75%
    13:00 +23°C° 0.3 mm 6 m/S 735 mmHg 74%
    14:00 +23°C° 0.3 mm 6 m/S 735 mmHg 72%
    15:00 +23°C° 1.9 mm 6 m/S 734 mmHg 76%
    16:00 +22°C° 1.9 mm 5 m/S 734 mmHg 80%
    17:00 +21°C° 1.9 mm 4 m/S 734 mmHg 84%
    18:00 +21°C° 0.3 mm 4 m/S 734 mmHg 85%
    19:00 +20°C° 0.3 mm 4 m/S 734 mmHg 86%
    20:00 +19°C° 0.3 mm 4 m/S 734 mmHg 87%
    21:00 +19°C° 0.4 mm 4 m/S 734 mmHg 87%
    22:00 +17°C° 0.4 mm 5 m/S 734 mmHg 88%
    23:00 +17°C° 0.4 mm 5 m/S 735 mmHg 88%

    Morgen, 20 Mai, Montag

    Zeit Temperatur Niederschläge Wind Luftdruck Luftfeuchtigkeit
    00:00 +16°C° 1 mm 5 m/S 735 mmHg 89%
    01:00 +16°C° 1 mm 5 m/S 735 mmHg 90%
    02:00 +16°C° 1 mm 5 m/S 735 mmHg 90%
    03:00 +15°C° 0.5 mm 5 m/S 735 mmHg 91%
    04:00 +15°C° 0.5 mm 5 m/S 735 mmHg 91%
    05:00 +15°C° 0.5 mm 5 m/S 735 mmHg 91%
    06:00 +16°C° 0 mm 6 m/S 735 mmHg 90%
    07:00 +17°C° 0 mm 6 m/S 735 mmHg 88%
    08:00 +19°C° 0 mm 6 m/S 736 mmHg 86%
    09:00 +20°C° 0 mm 7 m/S 736 mmHg 82%
    10:00 +22°C° 0 mm 8 m/S 736 mmHg 77%
    11:00 +23°C° 0 mm 8 m/S 736 mmHg 72%
    12:00 +23°C° 0 mm 8 m/S 736 mmHg 71%
    13:00 +24°C° 0 mm 8 m/S 735 mmHg 70%
    14:00 +24°C° 0 mm 8 m/S 735 mmHg 68%
    15:00 +23°C° 0.5 mm 8 m/S 735 mmHg 73%
    16:00 +23°C° 0.5 mm 7 m/S 735 mmHg 77%
    17:00 +22°C° 0.5 mm 6 m/S 734 mmHg 82%
    18:00 +21°C° 0.8 mm 6 m/S 734 mmHg 84%
    19:00 +20°C° 0.8 mm 6 m/S 734 mmHg 87%
    20:00 +19°C° 0.8 mm 5 m/S 734 mmHg 90%
    21:00 +19°C° 0.2 mm 5 m/S 734 mmHg 91%
    22:00 +17°C° 0.2 mm 5 m/S 734 mmHg 92%
    23:00 +17°C° 0.2 mm 5 m/S 734 mmHg 94%

    übermorgen, 21 Mai, Dienstag

    Zeit Temperatur Niederschläge Wind Luftdruck Luftfeuchtigkeit
    00:00 +16°C° 0 mm 5 m/S 734 mmHg 94%
    01:00 +16°C° 0 mm 6 m/S 734 mmHg 94%
    02:00 +16°C° 0 mm 6 m/S 734 mmHg 94%
    03:00 +15°C° 0 mm 6 m/S 733 mmHg 94%
    04:00 +15°C° 0 mm 6 m/S 733 mmHg 94%
    05:00 +15°C° 0 mm 6 m/S 733 mmHg 95%
    06:00 +15°C° 0 mm 7 m/S 733 mmHg 93%
    07:00 +16°C° 0 mm 7 m/S 733 mmHg 90%
    08:00 +16°C° 0 mm 7 m/S 733 mmHg 88%
    09:00 +17°C° 0.1 mm 7 m/S 733 mmHg 87%
    10:00 +18°C° 0.1 mm 7 m/S 733 mmHg 85%
    11:00 +19°C° 0.1 mm 6 m/S 733 mmHg 84%
    12:00 +20°C° 0.9 mm 7 m/S 733 mmHg 82%
    13:00 +21°C° 0.9 mm 7 m/S 733 mmHg 79%
    14:00 +22°C° 0.9 mm 7 m/S 733 mmHg 77%
    15:00 +22°C° 0.5 mm 6 m/S 733 mmHg 78%
    16:00 +21°C° 0.5 mm 6 m/S 732 mmHg 78%
    17:00 +21°C° 0.5 mm 5 m/S 732 mmHg 78%
    18:00 +20°C° 0.2 mm 4 m/S 732 mmHg 81%
    19:00 +19°C° 0.2 mm 3 m/S 732 mmHg 84%
    20:00 +17°C° 0.2 mm 3 m/S 732 mmHg 87%
    21:00 +17°C° 0 mm 2 m/S 732 mmHg 88%
    22:00 +16°C° 0 mm 2 m/S 732 mmHg 89%
    23:00 +15°C° 0 mm 2 m/S 732 mmHg 91%

    22 Mai, Mittwoch

    Zeit Temperatur Niederschläge Wind Luftdruck Luftfeuchtigkeit
    00:00 +15°C° 0.8 mm 2 m/S 733 mmHg 92%
    01:00 +15°C° 0.8 mm 2 m/S 733 mmHg 92%
    02:00 +15°C° 0.8 mm 2 m/S 733 mmHg 93%
    03:00 +15°C° 0 mm 2 m/S 733 mmHg 94%
    04:00 +14°C° 0 mm 2 m/S 733 mmHg 94%
    05:00 +14°C° 0 mm 2 m/S 733 mmHg 95%
    06:00 +15°C° 0.4 mm 2 m/S 733 mmHg 92%
    07:00 +16°C° 0.4 mm 3 m/S 733 mmHg 89%
    08:00 +17°C° 0.4 mm 3 m/S 733 mmHg 86%
    09:00 +17°C° 1.2 mm 3 m/S 733 mmHg 84%
    10:00 +18°C° 1.2 mm 3 m/S 733 mmHg 82%
    11:00 +18°C° 1.2 mm 3 m/S 733 mmHg 80%
    12:00 +18°C° 0.6 mm 3 m/S 733 mmHg 80%
    13:00 +18°C° 0.6 mm 2 m/S 733 mmHg 81%
    14:00 +18°C° 0.6 mm 2 m/S 733 mmHg 81%
    15:00 +18°C° 0.5 mm 3 m/S 733 mmHg 82%
    16:00 +17°C° 0.5 mm 3 m/S 733 mmHg 83%
    17:00 +17°C° 0.5 mm 4 m/S 732 mmHg 84%
    18:00 +17°C° 0.1 mm 3 m/S 732 mmHg 86%
    19:00 +16°C° 0.1 mm 3 m/S 732 mmHg 88%
    20:00 +14°C° 0.1 mm 3 m/S 733 mmHg 90%
    21:00 +14°C° 0.1 mm 3 m/S 733 mmHg 90%
    22:00 +14°C° 0.1 mm 3 m/S 733 mmHg 90%
    23:00 +14°C° 0.1 mm 3 m/S 733 mmHg 90%

    23 Mai, Donnerstag

    Zeit Temperatur Niederschläge Wind Luftdruck Luftfeuchtigkeit
    00:00 +14°C° 0.1 mm 3 m/S 733 mmHg 90%
    01:00 +14°C° 0.1 mm 3 m/S 733 mmHg 91%
    02:00 +14°C° 0.1 mm 3 m/S 733 mmHg 91%
    03:00 +13°C° 0 mm 3 m/S 733 mmHg 92%
    04:00 +13°C° 0 mm 3 m/S 732 mmHg 93%
    05:00 +12°C° 0 mm 3 m/S 732 mmHg 94%
    06:00 +14°C° 0 mm 3 m/S 732 mmHg 90%
    07:00 +16°C° 0 mm 3 m/S 733 mmHg 86%
    08:00 +18°C° 0 mm 4 m/S 733 mmHg 81%
    09:00 +19°C° 0.1 mm 4 m/S 733 mmHg 78%
    10:00 +20°C° 0.1 mm 4 m/S 733 mmHg 74%
    11:00 +21°C° 0.1 mm 4 m/S 733 mmHg 70%
    12:00 +21°C° 0.3 mm 3 m/S 733 mmHg 69%
    13:00 +21°C° 0.3 mm 3 m/S 732 mmHg 68%
    14:00 +22°C° 0.3 mm 3 m/S 732 mmHg 67%
    15:00 +22°C° 0.3 mm 3 m/S 732 mmHg 68%
    16:00 +21°C° 0.3 mm 2 m/S 732 mmHg 70%
    17:00 +21°C° 0.3 mm 2 m/S 732 mmHg 71%
    18:00 +20°C° 0 mm 2 m/S 732 mmHg 76%
    19:00 +18°C° 0 mm 2 m/S 732 mmHg 82%
    20:00 +17°C° 0 mm 2 m/S 732 mmHg 87%
    21:00 +16°C° 0.1 mm 2 m/S 732 mmHg 89%
    22:00 +16°C° 0.1 mm 2 m/S 732 mmHg 91%
    23:00 +15°C° 0.1 mm 2 m/S 732 mmHg 93%

    24 Mai, Freitag

    Zeit Temperatur Niederschläge Wind Luftdruck Luftfeuchtigkeit
    00:00 +15°C° 0 mm 2 m/S 732 mmHg 93%
    01:00 +15°C° 0 mm 2 m/S 731 mmHg 94%
    02:00 +14°C° 0 mm 2 m/S 731 mmHg 95%
    03:00 +14°C° 0 mm 2 m/S 731 mmHg 96%
    04:00 +14°C° 0 mm 2 m/S 731 mmHg 96%
    05:00 +14°C° 0 mm 2 m/S 731 mmHg 97%
    06:00 +14°C° 0 mm 3 m/S 732 mmHg 94%
    07:00 +16°C° 0 mm 3 m/S 732 mmHg 92%
    08:00 +17°C° 0 mm 3 m/S 732 mmHg 89%
    09:00 +18°C° 0.1 mm 3 m/S 732 mmHg 87%
    10:00 +19°C° 0.1 mm 3 m/S 732 mmHg 85%
    11:00 +19°C° 0.1 mm 4 m/S 732 mmHg 83%
    12:00 +20°C° 0.2 mm 4 m/S 731 mmHg 81%
    13:00 +20°C° 0.2 mm 4 m/S 731 mmHg 80%
    14:00 +20°C° 0.2 mm 4 m/S 731 mmHg 78%
    15:00 +20°C° 0.5 mm 4 m/S 731 mmHg 79%
    16:00 +20°C° 0.5 mm 4 m/S 730 mmHg 80%
    17:00 +19°C° 0.5 mm 4 m/S 730 mmHg 82%
    18:00 +18°C° 0.1 mm 4 m/S 730 mmHg 86%
    19:00 +17°C° 0.1 mm 3 m/S 730 mmHg 91%
    20:00 +14°C° 0.1 mm 3 m/S 729 mmHg 95%
    21:00 +14°C° 0 mm 3 m/S 729 mmHg 96%
    22:00 +14°C° 0 mm 2 m/S 729 mmHg 97%
    23:00 +13°C° 0 mm 2 m/S 729 mmHg 98%
    Mehr zeigen